Location: Cincinnati Observatory Center
(39.1389°N, 84.4225°W)
Time: 09:28:39
(UTC-05:00)

Daily predictions for brighter satellites

Satellite Brightness Start Highest point End
(mag) Time Altitude Azimuth Time Altitude Azimuth Time Altitude Azimuth
SL-8 Rocket 4.1 17:34:11 10° N 17:40:12 52° E 17:46:10 10° SSE
CZ-2C R/B 4.1 17:37:56 10° N 17:42:21 67° WNW 17:46:48 10° SSW
IDEFIX/ARIANE 42P 2.8 17:40:29 10° SE 17:45:28 48° ENE 17:50:27 10° N
CORIOLIS 4.5 17:40:50 10° SE 17:45:57 45° ENE 17:51:03 10° N
ATLAS 2AS CENTAUR R/B 3.2 17:38:21 10° NNW 17:46:17 55° NE 17:53:42 10° SE
Cosmos 1844 3.8 17:40:53 10° S 17:46:22 62° ESE 17:51:52 10° NNE
Cosmos 1455 Rocket 3.7 17:45:13 10° NNE 17:49:14 34° ENE 17:53:16 10° SE
BREEZE-M DEB (TANK) 3.7 17:43:02 10° WNW 17:50:21 78° SW 17:54:01 10° SE
Cosmos 2366 rocket 4.3 17:45:19 10° N 17:51:26 47° ENE 17:57:27 10° SSE
CZ-3B DEB 1.8 17:50:12 10° SW 17:53:20 80° SE 18:01:15 10° NE
Cosmos 2218 Rocket 4.1 17:49:55 10° N 17:56:07 59° E 18:02:13 10° SSE
Cosmos 2181 Rocket 4.3 17:50:16 10° S 17:56:36 77° W 18:03:03 10° N
MSX 4.1 17:52:47 10° SE 17:58:14 45° ENE 18:03:40 10° N
CZ-4 R/B 1.5 17:58:09 10° SSE 18:02:20 87° WSW 18:06:31 10° NNW
Cosmos 2278 Rocket 2.4 17:57:27 10° S 18:02:53 51° ESE 18:08:21 10° NNE
Thor Agena Rocket 3.6 17:57:39 10° NNE 18:02:53 80° ESE 18:08:09 10° SSW
SMAP 3.0 17:58:40 10° SSE 18:03:17 72° ENE 18:07:56 10° N
OTV 4 2.6 18:04:06 10° WSW 18:06:37 24° SSW 18:09:08 10° SE
Cosmos 1238 Rocket 2.0 18:03:43 10° S 18:06:38 60° E 18:09:36 10° NNE
SJ-12 3.9 18:03:30 10° SSE 18:07:35 90° WSW 18:11:43 10° NNW
OPS 8737 4.2 18:04:13 10° SSW 18:07:38 88° NW 18:10:36 11° NNE
CZ-2C R/B 2.4 18:04:33 10° SSE 18:09:30 85° ENE 18:14:39 10° NNW
Cosmos 1975 3.3 18:07:49 10° N 18:11:37 37° ENE 18:15:22 10° SSE
COSMOS 2406 4.1 18:06:22 10° NNW 18:11:55 54° WSW 18:17:29 10° S
Meteor 1-12 Rocket 4.4 18:06:45 10° N 18:12:28 58° ENE 18:18:15 10° SSE
Cosmos 2251 Rocket 3.5 18:08:26 10° NNW 18:13:48 73° ENE 18:19:05 10° SSE
MOS 1 4.4 18:10:38 10° SSE 18:16:18 81° WSW 18:21:59 10° NNW
SL-27 R/B 2.9 18:16:45 10° NNW 18:20:24 66° WSW 18:23:58 10° S
COSMOS 2441 4.4 18:16:17 10° SSE 18:21:02 58° ENE 18:25:51 10° N
Genesis I 4.2 18:18:16 10° N 18:21:39 27° NE 18:23:19 20° E
SL-8 R/B 3.7 18:22:53 10° WSW 18:27:39 79° NNW 18:30:50 21° NE
Cosmos 1484 Rocket 2.8 18:25:00 10° SSE 18:28:39 51° ENE 18:32:17 10° N
Cosmos 2082 Rocket 2.9 18:24:18 10° N 18:29:13 29° ENE 18:33:41 12° ESE
Cosmos 1833 Rocket 3.6 18:26:07 10° N 18:30:48 26° NE 18:33:04 20° E
NOSS 2-1 (D) 4.5 18:29:58 10° SSE 18:33:03 23° ESE 18:33:30 23° ESE
COSMO-SKYMED 1 2.5 18:34:28 10° NNE 18:38:48 69° E 18:43:07 10° S
Cosmos 1500 3.0 18:37:59 10° N 18:41:49 69° E 18:45:38 10° SSE
Meteor 1-28 Rocket 3.5 18:45:30 37° ENE 18:46:24 45° E 18:50:02 10° S
Nadezhda 3 Rocket 3.9 18:41:44 10° S 18:47:50 68° E 18:54:04 10° NNE
GRACE-1 4.5 18:45:10 10° SSE 18:47:12 41° SSE 18:47:12 41° SSE
SL-24 R/B - RUBIN 2 4.5 18:44:05 10° SSW 18:50:15 72° ESE 18:54:43 22° NE
NOSS 2-1 (E) 4.0 18:48:45 10° S 18:52:09 34° ESE 18:52:09 34° ESE
Timation 1 Rocket 4.5 18:46:49 10° S 18:52:33 52° ESE 18:55:27 28° NE
Meteor 2-14 Rocket 4.4 18:49:00 10° N 18:55:06 60° E 19:01:08 10° SSE
GEOS 3 Rocket 3.5 18:53:31 17° SE 18:57:25 62° NE 19:02:28 10° NNW
Tiangong 1 1.2 18:54:26 10° WSW 18:57:11 59° S 18:57:11 59° S
Meteor 2-4 Rocket 4.0 18:52:47 10° SSE 18:57:46 39° E 18:58:30 37° ENE
BREEZE-M DEB (TANK) 4.5 19:03:55 10° NW 19:04:10 11° NNW 19:04:10 11° NNW
USA 234 4.5 19:03:52 16° NNE 19:08:07 32° NNW 19:13:43 10° W
Cosmos 1025 Rocket 3.6 19:04:13 10° SSE 19:07:27 41° SE 19:07:27 41° SE
ATLAS 3B CENTAUR R/B 4.1 18:52:59 10° WSW 19:11:11 46° S 19:15:58 23° SE
COSMOS 2487 2.6 19:08:22 10° NNW 19:11:58 73° WSW 19:13:00 43° S
Meteor 2-21 Rocket 4.4 19:07:26 10° N 19:13:40 86° W 19:19:49 10° S
Cosmos 921 Rocket 2.8 19:09:45 10° SSW 19:13:58 88° ESE 19:14:35 65° NNE
ISS -0.6 19:13:54 10° NW 19:14:52 12° NNW 19:14:52 12° NNW
Meteor 2-16 Rocket 4.3 19:11:43 10° N 19:17:50 83° E 19:23:55 10° S
Cosmos 1346 Rocket 4.1 19:14:41 10° SSW 19:18:20 38° WNW 19:20:56 17° NNW
Cosmos 1371 Rocket 4.0 19:14:43 10° S 19:19:58 60° ESE 19:20:09 60° E
BREEZE M DEB (TANK) 4.0 19:16:16 10° NW 19:20:18 48° NNE 19:21:54 42° ENE
NOSS 3-4 (A) 4.2 19:15:22 10° NNW 19:21:56 41° NE 19:21:59 41° NE
NOSS 3-4 (C) 4.2 19:15:28 10° NNW 19:22:02 40° NE 19:22:03 40° NE
Okean 1-7 Rocket 4.2 19:25:54 10° SSW 19:30:20 55° W 19:32:13 32° NNW
Cosmos 2297 4.1 19:27:01 10° SW 19:32:36 60° WNW 19:35:04 32° N
Cosmos 1934 Rocket 3.9 19:40:12 10° N 19:46:26 86° W 19:52:43 10° S
Cosmos 2278 Rocket 4.2 19:42:50 10° WSW 19:47:15 23° NW 19:51:13 12° N
Cosmos 2082 Rocket 3.4 20:08:09 10° NW 20:13:21 38° WSW 20:15:50 26° SSW
Cosmos 1833 Rocket 3.6 20:09:34 10° NW 20:14:53 44° WSW 20:14:56 44° WSW
CZ-3B DEB 4.4 20:24:26 10° WNW 20:30:21 34° N 20:30:54 33° N
FALCON 9 R/B 4.4 21:08:52 10° W 21:15:38 30° WSW 21:15:38 30° WSW
